FW3057 Weather Reports


Display with metric or nautical units.
time (UTC)temp
F
wind
direction
speed
MPH
gust
MPH
rain 1hr
in
rain 24hr
in
rain mn
in
humidity
%
barometer
mb
20260831055309 61 269 7.0 9.0 0.00 0.00 0.00 91 1014.1
20260831054309 61 283 8.0 13.0 0.00 0.00 0.00 91 1014.0
20260831053309 61 290 6.0 9.0 0.00 0.00 0.00 91 1013.9
20260831051310 60 262 4.0 10.0 0.00 0.00 0.00 91 1013.4
20260831044309 61 264 5.0 10.0 0.00 0.00 0.00 91 1013.1
20260831043309 61 276 5.0 10.0 0.00 0.00 0.00 91 1013.1
20260831042310 61 218 4.0 12.0 0.00 0.00 0.00 90 1013.1
20260831041310 61 231 6.0 10.0 0.00 0.00 0.00 90 1013.0
20260831040310 61 269 5.0 9.0 0.00 0.00 0.00 90 1013.0
20260831035310 61 234 5.0 15.0 0.00 0.00 0.00 90 1013.0
20260831034310 61 245 7.0 15.0 0.00 0.00 0.00 90 1012.9
20260831033310 61 257 5.0 13.0 0.00 0.00 0.00 90 1012.8
20260831030310 61 265 9.0 13.0 0.00 0.00 0.00 90 1012.6
20260831025310 61 302 8.0 16.0 0.00 0.00 0.00 90 1012.6
20260831024310 62 283 5.0 16.0 0.00 0.00 0.00 90 1012.5
20260831023311 62 262 7.0 13.0 0.00 0.00 0.00 90 1012.4
20260831022310 62 265 8.0 13.0 0.00 0.00 0.00 90 1012.2
20260831021310 62 264 8.0 15.0 0.00 0.00 0.00 90 1012.0
20260831020310 62 233 7.0 22.0 0.00 0.00 0.00 90 1012.0
20260831015310 62 290 6.0 18.0 0.00 0.00 0.00 90 1011.9
20260831013310 61 240 8.0 17.0 0.00 0.00 0.00 90 1011.8
20260831011311 61 272 6.0 13.0 0.00 0.00 0.00 90 1011.8
20260831004310 62 220 7.0 12.0 0.00 0.00 0.00 90 1011.9
20260831003310 62 286 6.0 12.0 0.00 0.00 0.00 90 1012.0
20260831002311 62 252 8.0 13.0 0.00 0.00 0.00 90 1011.8
20260831001310 62 232 7.0 12.0 0.00 0.00 0.00 90 1011.9
20260831000310 62 269 8.0 16.0 0.00 0.00 0.00 91 1011.9
20260830234310 62 223 8.0 14.0 0.00 0.00 0.00 90 1011.7
20260830233310 62 240 9.0 15.0 0.00 0.00 0.00 90 1011.8
20260830232310 62 251 7.0 12.0 0.00 0.00 0.00 90 1011.8
20260830230310 62 231 6.0 13.0 0.00 0.00 0.00 91 1011.6
20260830225310 62 234 8.0 14.0 0.00 0.00 0.00 92 1011.5
20260830224311 62 178 9.0 14.0 0.00 0.00 0.00 91 1011.5
20260830223310 62 291 7.0 16.0 0.00 0.00 0.00 91 1011.5
20260830222310 62 241 8.0 19.0 0.00 0.00 0.00 91 1011.4
20260830221310 62 212 7.0 17.0 0.00 0.00 0.00 91 1011.4
20260830220310 62 216 8.0 20.0 0.00 0.00 0.00 91 1011.3
20260830214310 62 234 11.0 15.0 0.00 0.02 0.02 90 1011.2
20260830212310 62 223 9.0 18.0 0.00 0.02 0.02 90 1011.2
20260830211310 62 271 6.0 15.0 0.00 0.02 0.02 90 1011.2
20260830210310 62 223 9.0 14.0 0.00 0.02 0.02 89 1011.2
20260830205310 62 233 7.0 15.0 0.00 0.02 0.02 89 1011.2
20260830204310 62 229 7.0 13.0 0.00 0.02 0.02 89 1011.3
20260830203309 62 220 6.0 17.0 0.00 0.02 0.02 89 1011.0
20260830202310 62 264 7.0 14.0 0.00 0.02 0.02 89 1011.1
20260830201310 62 235 8.0 15.0 0.00 0.02 0.02 89 1011.1
20260830200310 62 223 7.0 11.0 0.00 0.02 0.02 89 1011.2
20260830195309 62 225 6.0 12.0 0.00 0.02 0.02 88 1011.2
20260830194309 63 174 6.0 11.0 0.02 0.02 0.02 89 1011.1
20260830192309 63 229 5.0 9.0 0.02 0.02 0.02 90 1010.9
20260830191309 64 225 6.0 13.0 0.02 0.02 0.02 89 1010.8
20260830190309 64 232 2.0 10.0 0.02 0.02 0.02 88 1010.8
20260830185309 65 225 5.0 11.0 0.02 0.02 0.02 86 1010.7
20260830184309 65 197 5.0 11.0 0.00 0.01 0.01 84 1010.7
20260830183309 65 222 6.0 15.0 0.00 0.01 0.01 84 1010.6
20260830182310 65 215 6.0 11.0 0.00 0.01 0.01 83 1010.4
20260830180309 66 233 8.0 17.0 0.00 0.01 0.01 83 1010.4
20260830174310 66 214 6.0 13.0 0.00 0.01 0.01 83 1010.4
20260830172310 67 195 7.0 20.0 0.00 0.01 0.01 84 1010.6
20260830171309 67 240 8.0 19.0 0.01 0.01 0.01 86 1010.5
20260830170311 66 229 10.0 16.0 0.01 0.01 0.01 86 1010.4
20260830165311 66 227 10.0 18.0 0.01 0.01 0.01 87 1010.1
20260830164309 66 235 6.0 13.0 0.01 0.01 0.01 86 1010.3
20260830162309 67 246 7.0 19.0 0.01 0.01 0.01 84 1010.5
20260830161309 68 176 9.0 21.0 0.00 0.00 0.00 78 1010.2
20260830160310 70 243 12.0 22.0 0.00 0.00 0.00 72 1010.6
20260830155309 71 243 9.0 16.0 0.00 0.00 0.00 70 1010.2
20260830154309 71 265 9.0 20.0 0.00 0.00 0.00 69 1010.0
20260830152309 73 203 11.0 22.0 0.00 0.00 0.00 66 1010.1
20260830151308 74 274 11.0 22.0 0.00 0.00 0.00 65 1010.1
20260830150309 74 269 6.0 19.0 0.00 0.00 0.00 66 1009.9
20260830145309 74 228 11.0 19.0 0.00 0.00 0.00 68 1010.2
20260830144309 74 199 8.0 22.0 0.00 0.00 0.00 67 1010.4
20260830143309 74 271 12.0 15.0 0.00 0.00 0.00 67 1010.4
20260830142310 74 203 10.0 21.0 0.00 0.00 0.00 69 1010.5
20260830141309 73 223 4.0 18.0 0.00 0.00 0.00 71 1010.5
20260830140309 72 223 8.0 14.0 0.00 0.00 0.00 72 1010.6
20260830135309 71 223 5.0 16.0 0.00 0.00 0.00 75 1010.8
20260830133309 70 214 12.0 21.0 0.00 0.00 0.00 78 1011.2
20260830130308 70 226 8.0 18.0 0.00 0.00 0.00 80 1011.2
20260830125308 70 269 9.0 14.0 0.00 0.00 0.00 75 1011.3
20260830124308 71 271 5.0 12.0 0.00 0.00 0.00 74 1011.4
20260830123309 72 215 6.0 15.0 0.00 0.00 0.00 69 1011.2
20260830122309 72 152 5.0 21.0 0.00 0.00 0.00 70 1011.3
20260830120309 72 240 9.0 16.0 0.00 0.00 0.00 69 1011.3
20260830114309 71 250 10.0 16.0 0.00 0.00 0.00 70 1011.5
20260830113309 71 234 7.0 17.0 0.00 0.00 0.00 70 1011.6
20260830112309 70 219 8.0 17.0 0.00 0.00 0.00 71 1011.8
20260830111309 70 283 5.0 14.0 0.00 0.00 0.00 72 1011.8
20260830110309 69 243 8.0 12.0 0.00 0.00 0.00 74 1011.9
20260830105309 69 222 6.0 15.0 0.00 0.00 0.00 75 1011.9
20260830103309 69 221 8.0 17.0 0.00 0.00 0.00 74 1012.1
20260830102309 69 298 5.0 15.0 0.00 0.00 0.00 75 1012.1
20260830101309 69 288 9.0 13.0 0.00 0.00 0.00 76 1012.3
20260830100309 68 245 6.0 15.0 0.00 0.00 0.00 77 1012.3
20260830095309 67 215 6.0 13.0 0.00 0.00 0.00 77 1012.2
20260830094309 67 227 7.0 13.0 0.00 0.00 0.00 78 1012.3
20260830093309 67 230 6.0 11.0 0.00 0.00 0.00 80 1012.3
20260830092309 66 208 5.0 10.0 0.00 0.00 0.00 81 1012.2
20260830091309 66 194 7.0 14.0 0.00 0.00 0.00 83 1012.2
20260830090309 65 217 5.0 9.0 0.00 0.00 0.00 86 1012.2
20260830085309 65 170 3.0 13.0 0.00 0.00 0.00 88 1012.3
20260830084309 65 201 6.0 17.0 0.00 0.00 0.00 88 1012.4
20260830083309 65 221 8.0 14.0 0.00 0.00 0.00 89 1012.3
20260830080308 64 224 6.0 10.0 0.00 0.00 0.00 91 1012.1
20260830073308 63 219 6.0 11.0 0.00 0.00 0.00 92 1012.2
20260830072308 63 220 5.0 10.0 0.00 0.00 0.00 92 1012.1
20260830065309 62 225 6.0 9.0 0.00 0.00 0.00 93 1012.2
20260830064309 62 194 4.0 11.0 0.00 0.00 0.00 93 1012.2
20260830062309 62 220 5.0 11.0 0.00 0.00 0.00 93 1012.0
20260830061309 62 248 4.0 11.0 0.00 0.00 0.00 93 1012.0
20260830060309 62 209 5.0 10.0 0.00 0.00 0.00 93 1011.9